Temperature
12 12 12 12 12 12 12 12 12 11 11 11 11 11 11 11 11 11 11 11 11 11 11 11 11 11 11 11 11 11 11 11 11 11 11 11 11 11
12 12 12 12 12 12 12 12 11 11 11 11 10 10 10 10 10 10 11 11 10 10 10 10 11 11 11 11 11 11 11 11 11 11 11 11 11 11
12 12 12 12 12 12 12 11 11 11 11 11 10 10 10 10 10 10 10 10 10 10 10 10 10 10 10 10 10 10 11 11 11 11 11 11 11 11
12 12 12 12 12 11 11 11 11 11 11 11 10 10 10 10 10 10 10 10 10 10 10 10 10 10 10 10 10 10 10 10 10 10 10 10 10 10
12 12 12 11 11 11 11 11 11 10 10 10 10 10 9 9 9 9 9 9 9 9 9 9 9 10 10 10 10 10 10 10 10 10 10 10 10 10
11 11 11 11 11 11 11 11 10 10 10 10 10 9 9 9 9 9 9 9 9 9 9 9 9 9 9 9 9 9 9 9 9 9 10 10 10 10
11 11 11 11 11 11 10 10 10 10 10 9 9 9 9 9 9 9 9 8 9 9 9 9 9 9 9 9 9 9 9 9 9 9 9 9 9 9
11 11 10 10 10 10 10 10 10 10 10 9 9 9 9 9 9 8 8 8 8 8 8 9 8 8 9 8 8 9 8 8 8 9 9 9 9 9
10 10 10 10 10 10 10 10 10 9 9 9 9 9 9 9 9 8 8 8 8 8 8 8 8 8 8 8 8 8 8 8 8 8 8 8 8 8
10 10 10 10 10 10 10 10 9 9 9 9 9 9 9 8 8 8 8 8 8 8 8 8 8 8 8 8 8 8 8 8 8 8 8 8 8 8
10 9 9 9 9 9 9 9 9 9 9 9 9 8 8 8 8 8 8 8 8 8 7 7 8 8 8 8 8 8 8 8 8 8 7 7 7 8
9 9 9 9 9 9 9 9 9 9 9 8 8 8 8 8 8 8 7 7 7 7 7 7 7 7 7 7 7 7 7 7 7 7 7 7 7 7
9 9 9 9 9 9 8 8 8 8 8 8 8 8 8 8 7 7 7 7 7 7 7 7 7 7 7 7 7 7 7 7 7 7 7 7 7 7
8 8 8 8 8 8 8 8 8 8 8 8 8 7 7 7 7 7 7 7 7 7 7 7 7 6 6 6 6 6 7 7 7 7 7 7 7 6
8 8 8 8 8 8 8 8 8 7 7 7 7 7 7 7 7 7 7 7 7 7 6 6 6 6 6 6 6 6 6 6 6 6 6 6 6 6
8 8 7 7 7 7 7 7 7 7 7 7 7 7 7 7 7 7 7 7 7 7 6 6 6 6 6 6 6 6 6 6 6 6 6 6 6 6
7 7 7 7 7 7 7 7 7 7 7 7 7 7 6 6 6 6 6 6 6 6 6 6 6 6 5 5 5 5 5 6 6 6 6 6 6 6
7 7 7 6 6 6 6 6 6 6 6 6 6 6 6 6 6 6 5 5 5 5 5 5 5 5 5 5 5 5 5 5 5 5 5 5 6 6
7 6 6 6 6 6 6 6 6 6 6 6 6 6 6 5 5 5 5 5 5 5 5 5 5 5 5 5 5 5 5 5 5 5 5 5 5 5
6 6 6 6 6 6 6 5 5 5 5 5 5 5 5 5 5 5 5 5 5 5 5 5 5 5 4 5 5 5 5 5 5 5 5 5 5 5
6 6 6 5 5 5 5 5 5 5 5 5 5 5 5 5 5 4 4 4 4 4 4 4 5 4 4 4 4 5 5 5 4 4 4 4 4 4
6 5 5 5 5 5 5 5 5 5 5 5 4 5 5 5 4 4 4 4 4 4 4 4 4 4 4 4 4 4 5 4 4 4 4 4 4 4
5 5 5 5 5 5 5 5 5 5 4 4 4 4 4 4 4 4 4 4 4 4 4 4 4 4 4 4 4 4 4 4 4 4 4 4 4 4
Wind_Speed
1 1 1 1 2 2 3 4 4 2 2 2 1 2 1 1 0 1 1 2 3 3 4 4 4 4 4 4 3 3 3 2 2 2 3 3 3 3
1 1 1 0 1 1 2 2 3 3 2 2 2 2 1 1 1 1 1 2 2 2 3 3 3 4 4 4 3 3 3 3 2 3 3 3 3 3
1 1 1 1 1 1 1 2 2 3 2 2 1 1 1 1 1 1 2 2 2 2 3 3 3 3 3 3 3 3 3 3 3 3 3 3 3 3
2 2 2 1 1 1 1 2 2 2 3 2 1 1 1 1 1 1 2 2 2 3 3 3 3 3 3 3 4 3 3 3 3 3 4 3 3 3
3 3 3 2 2 1 2 2 2 2 2 2 1 1 1 1 1 1 2 2 2 3 3 3 3 3 3 3 3 3 3 2 3 3 4 4 4 4
2 3 3 3 3 3 2 2 2 2 2 2 1 1 0 1 1 0 2 2 2 2 3 3 3 3 3 3 3 3 3 2 2 2 3 4 4 4
1 2 2 2 3 3 3 3 3 3 2 2 2 1 1 1 1 1 1 2 2 2 1 2 2 2 3 4 4 4 4 3 3 3 3 3 4 4
1 1 1 1 3 4 4 4 5 4 4 3 2 3 3 3 2 1 1 1 2 2 1 2 1 2 4 4 5 5 5 5 4 4 4 4 4 4
1 1 1 1 1 2 3 3 4 5 5 5 4 4 4 4 3 2 2 2 3 2 1 2 2 3 4 5 5 5 6 6 6 5 5 5 5 5
1 2 2 2 2 2 2 1 1 3 4 3 4 5 4 4 5 4 3 2 2 1 1 2 2 3 3 4 6 6 6 6 6 6 6 5 6 6
1 1 1 2 1 2 3 2 1 2 2 3 3 4 4 4 3 2 1 1 2 2 1 2 2 2 3 3 5 6 7 7 7 7 7 6 6 6
1 1 1 1 1 1 3 3 2 2 1 1 1 2 1 2 3 3 4 2 2 3 3 2 2 1 2 3 2 4 5 7 8 8 8 7 6 3
1 1 2 2 1 1 2 3 4 2 2 1 0 1 1 1 2 2 3 4 3 4 3 3 2 1 2 3 3 3 3 3 4 5 7 7 7 4
2 1 2 2 1 1 1 2 2 1 1 1 0 1 1 2 2 3 3 3 4 4 4 4 3 3 2 2 4 3 2 3 3 3 5 6 7 8
1 1 2 2 1 1 2 1 0 1 1 1 2 3 3 3 2 1 2 2 2 3 3 4 3 2 2 3 3 3 3 3 3 3 3 3 4 4
1 2 2 2 1 1 1 1 1 2 2 3 3 3 2 1 1 1 2 1 2 3 3 3 4 3 3 3 3 4 3 3 2 3 3 3 4 5
1 0 1 1 1 1 1 1 1 1 1 2 2 2 2 2 2 2 1 1 2 2 3 2 2 2 3 3 3 4 3 3 3 2 2 3 4 5
1 1 1 1 2 2 2 2 1 2 2 2 2 2 3 3 3 2 2 2 3 3 3 2 1 1 2 3 4 4 4 4 3 3 2 3 4 4
1 2 2 3 2 2 2 2 3 3 2 2 3 3 3 3 3 3 3 3 3 3 3 2 2 2 3 5 4 4 4 3 3 3 3 4 4 5
1 2 3 3 3 3 3 3 3 3 2 3 3 3 3 3 3 3 3 4 4 3 3 2 3 4 5 5 4 4 5 3 3 3 3 3 4 5
3 3 3 3 3 3 3 3 3 3 3 3 3 4 4 4 4 4 4 5 4 4 4 5 5 5 3 1 2 3 3 5 5 3 2 2 3 3
3 4 4 4 4 3 3 3 3 3 4 4 4 4 4 4 5 5 5 4 5 5 5 4 3 2 2 4 5 5 4 4 4 6 5 5 3 3
3 3 3 4 4 3 3 4 4 4 4 4 4 4 4 4 4 4 5 5 5 5 4 3 2 2 3 4 4 4 5 4 3 2 4 6 8 9
Wind_Direction
168 153 156 193 178 169 159 156 152 175 257 260 278 286 307 292 339 18 339 347 347 356 359 1 9 13 14 12 9 3 354 351 352 348 344 324 312 322
149 123 115 181 171 149 160 157 146 158 206 240 236 258 257 300 284 290 282 313 318 342 347 342 350 359 360 356 358 358 357 -0 6 3 355 350 337 332
159 154 187 178 158 155 154 149 142 140 168 257 258 259 226 233 331 305 314 311 296 309 321 330 336 347 357 357 357 1 14 15 14 7 6 2 357 344
214 196 216 185 173 180 162 161 164 156 155 200 260 271 268 255 275 295 323 313 297 308 308 316 317 323 338 342 342 348 356 5 3 360 358 357 353 348
210 206 209 181 198 208 183 172 171 150 136 156 211 255 297 333 11 336 330 325 311 308 300 301 306 314 323 331 337 337 337 348 360 3 360 357 351 341
220 214 210 199 204 206 197 186 159 139 133 143 164 224 262 317 70 332 329 323 309 323 316 310 304 307 306 306 311 318 314 304 316 336 343 343 340 335
251 232 227 221 213 201 193 179 165 157 155 162 180 192 227 219 224 220 257 301 304 293 304 309 306 300 295 284 284 285 286 281 286 303 314 318 321 322
239 260 244 232 232 227 216 192 181 175 179 182 205 213 227 220 202 212 209 265 285 274 222 281 292 278 277 266 271 272 271 270 276 284 294 301 304 308
208 228 256 264 211 206 216 208 210 206 192 188 200 216 218 214 188 198 217 225 244 251 181 268 277 273 277 278 277 272 273 273 276 278 283 290 292 293
227 219 217 240 210 171 168 166 214 233 222 209 209 220 221 209 198 203 210 223 281 290 178 239 265 269 288 275 276 270 270 271 273 274 275 284 291 288
299 249 209 216 255 165 151 175 221 271 265 242 249 249 243 227 185 134 135 141 274 272 216 208 251 283 284 278 275 273 265 261 263 269 273 276 279 282
325 304 281 255 255 161 171 177 210 252 265 350 336 312 283 238 214 196 192 197 229 253 232 198 232 270 298 286 290 281 265 263 264 265 268 272 274 266
250 292 295 295 275 212 185 195 222 211 181 179 219 323 325 267 242 235 211 203 213 238 224 180 204 216 232 281 294 280 256 262 262 266 266 268 270 251
214 244 277 304 290 279 237 263 256 137 131 134 164 248 260 260 259 247 242 237 234 236 221 187 195 206 213 258 278 288 279 266 250 259 260 270 271 265
228 249 289 303 284 277 288 288 131 146 155 179 223 242 244 248 254 271 277 276 283 276 238 210 199 207 211 231 254 271 289 286 254 254 264 262 259 259
289 300 305 306 294 294 320 296 234 198 193 215 236 249 256 259 253 243 256 263 272 291 286 249 220 198 220 241 241 261 260 266 277 261 267 270 261 251
224 341 2 347 325 316 304 280 242 227 232 242 239 250 258 256 265 260 245 245 246 267 285 301 292 244 229 228 248 251 255 265 264 260 263 272 270 259
166 225 252 254 250 253 254 272 259 246 248 246 243 239 244 247 256 266 250 238 252 260 264 270 292 331 322 292 235 238 255 262 265 255 245 256 278 274
184 233 243 245 248 247 243 243 253 255 244 240 245 248 249 251 250 251 250 251 252 255 263 257 244 233 267 285 280 240 245 268 266 260 251 240 258 272
227 233 240 243 243 242 243 243 249 251 244 245 251 252 247 246 250 251 249 245 249 257 265 256 238 236 243 257 264 276 254 241 246 257 265 262 267 282
241 241 242 243 242 241 244 247 245 243 242 240 246 250 248 244 247 248 247 255 250 248 253 255 253 258 256 250 274 284 283 260 249 242 247 260 282 287
238 238 243 243 240 240 243 247 250 250 248 243 249 250 249 245 245 245 244 249 248 248 254 260 258 242 226 234 254 266 280 294 286 272 256 236 224 232
250 244 242 243 244 241 238 242 245 250 250 252 253 252 249 251 252 249 247 244 248 250 254 260 260 248 243 236 247 261 269 278 291 301 293 279 255 251
Height
1524 1524 1524 1524 1524 1524 1524 1524 1525 1524 1524 1524 1524 1524 1524 1524 1524 1523 1523 1522 1521 1520 1519 1518 1517 1516 1515 1515 1514 1514 1513 1513 1512 1512 1512 1512 1512 1511
1522 1522 1522 1523 1523 1523 1523 1523 1523 1523 1522 1522 1523 1523 1523 1523 1522 1522 1521 1521 1520 1519 1518 1518 1517 1516 1515 1514 1514 1513 1513 1512 1511 1511 1511 1510 1510 1510
1520 1520 1521 1521 1521 1521 1521 1521 1521 1521 1521 1521 1521 1521 1521 1521 1521 1520 1520 1519 1518 1518 1517 1516 1516 1515 1514 1514 1513 1513 1512 1511 1511 1510 1509 1509 1508 1508
1518 1518 1518 1519 1519 1519 1519 1519 1519 1519 1519 1519 1519 1519 1519 1519 1519 1518 1518 1517 1517 1516 1515 1515 1514 1514 1513 1512 1512 1512 1511 1510 1510 1509 1508 1508 1507 1506
1516 1516 1516 1516 1516 1516 1516 1517 1517 1517 1517 1517 1517 1517 1517 1517 1517 1517 1516 1516 1515 1514 1514 1513 1513 1512 1512 1511 1510 1510 1509 1509 1508 1507 1507 1506 1505 1505
1513 1513 1514 1514 1514 1514 1514 1514 1515 1515 1515 1515 1515 1515 1515 1515 1515 1514 1514 1514 1513 1513 1512 1511 1511 1510 1510 1509 1508 1508 1507 1507 1506 1506 1505 1504 1504 1503
1510 1511 1511 1511 1511 1512 1512 1512 1512 1512 1512 1513 1512 1512 1512 1512 1512 1512 1512 1511 1511 1511 1510 1509 1509 1508 1508 1507 1506 1506 1505 1505 1504 1503 1503 1502 1502 1501
1508 1508 1508 1508 1508 1509 1509 1509 1510 1510 1510 1510 1510 1510 1510 1510 1510 1510 1510 1509 1508 1509 1508 1507 1507 1506 1505 1505 1504 1504 1503 1502 1502 1501 1500 1500 1499 1499
1505 1505 1505 1505 1505 1505 1506 1506 1507 1507 1508 1508 1508 1508 1508 1508 1508 1507 1507 1507 1506 1506 1506 1504 1504 1503 1503 1502 1502 1501 1501 1500 1499 1498 1498 1497 1496 1496
1503 1503 1503 1502 1502 1503 1503 1503 1504 1504 1505 1505 1505 1505 1506 1506 1505 1505 1505 1504 1504 1504 1503 1502 1501 1501 1501 1500 1499 1499 1498 1497 1496 1496 1495 1494 1494 1493
1500 1500 1500 1500 1500 1500 1500 1500 1501 1501 1502 1502 1503 1503 1503 1503 1503 1502 1501 1501 1500 1500 1501 1500 1499 1498 1498 1497 1497 1496 1495 1494 1493 1493 1492 1491 1491 1490
1497 1497 1498 1497 1497 1497 1497 1497 1497 1498 1498 1498 1499 1499 1499 1499 1499 1499 1499 1498 1497 1497 1497 1497 1496 1496 1494 1494 1493 1493 1492 1491 1490 1490 1489 1488 1488 1487
1494 1494 1495 1495 1495 1495 1495 1495 1495 1495 1495 1495 1495 1495 1495 1495 1495 1495 1495 1495 1495 1494 1495 1494 1493 1493 1492 1491 1490 1489 1489 1488 1487 1486 1485 1485 1484 1483
1492 1492 1492 1492 1492 1492 1492 1492 1492 1492 1492 1492 1492 1491 1491 1491 1492 1492 1492 1491 1491 1491 1491 1491 1490 1489 1488 1487 1486 1485 1485 1484 1483 1482 1482 1481 1480 1480
1489 1489 1490 1489 1489 1489 1489 1489 1489 1489 1489 1488 1488 1488 1488 1488 1488 1488 1488 1487 1487 1487 1487 1486 1486 1486 1485 1484 1483 1482 1481 1480 1479 1478 1477 1477 1476 1475
1486 1486 1486 1486 1486 1486 1486 1486 1486 1485 1485 1485 1485 1485 1485 1484 1484 1484 1483 1483 1482 1482 1482 1482 1482 1482 1481 1480 1479 1478 1477 1476 1475 1474 1473 1472 1472 1471
1483 1483 1482 1482 1482 1482 1482 1482 1482 1482 1481 1481 1481 1480 1480 1480 1480 1479 1479 1478 1478 1477 1477 1477 1477 1477 1477 1476 1474 1473 1473 1472 1471 1470 1469 1467 1467 1467
1480 1479 1478 1478 1478 1478 1478 1477 1477 1477 1477 1477 1477 1476 1476 1475 1475 1475 1475 1474 1474 1473 1473 1473 1473 1472 1472 1471 1471 1469 1468 1467 1466 1465 1464 1463 1462 1463
1475 1474 1474 1474 1474 1474 1474 1474 1474 1474 1473 1473 1473 1472 1472 1471 1471 1471 1471 1470 1470 1470 1469 1469 1468 1468 1467 1465 1465 1466 1464 1462 1461 1460 1460 1459 1458 1458
1471 1470 1470 1470 1470 1470 1470 1470 1470 1470 1469 1469 1469 1468 1468 1467 1467 1467 1466 1466 1466 1465 1465 1465 1464 1464 1463 1462 1461 1460 1460 1459 1457 1456 1455 1454 1454 1453
1466 1466 1466 1466 1466 1466 1466 1466 1465 1465 1465 1465 1464 1464 1464 1463 1463 1462 1462 1462 1461 1460 1460 1459 1459 1460 1459 1459 1457 1455 1455 1455 1454 1453 1451 1450 1449 1448
1462 1462 1462 1462 1462 1461 1461 1461 1461 1461 1461 1460 1460 1460 1459 1459 1458 1458 1458 1457 1456 1456 1456 1455 1455 1455 1454 1453 1451 1450 1450 1450 1450 1449 1448 1447 1445 1444
1458 1458 1457 1457 1457 1457 1457 1457 1456 1456 1456 1456 1455 1455 1455 1454 1454 1453 1453 1452 1452 1451 1451 1450 1450 1449 1449 1448 1447 1446 1446 1445 1444 1443 1443 1443 1442 1441